Weather History for Kaiser, MO

Change the Weather History Date:

Thursday, January 10, 2013

  Actual Average Record
Temperature  
Mean Temperature 46 °F -  
Max Temperature 53 °F 38 °F 60 °F (2000)
Min Temperature 39 °F 22 °F 1 °F (1997)
Degree Days  
Heating Degree Days 19    
Moisture  
Dew Point 41 °F    
Average Humidity 81    
Maximum Humidity 93    
Minimum Humidity 50    
Precipitation  
Precipitation 0.22 in - - ()
Sea Level Pressure  
Sea Level Pressure 30.06 in    
Wind  
Wind Speed 8 mph (ESE)    
Max Wind Speed 12 mph    
Max Gust Speed 17 mph    
Visibility 8 miles    
Events      
Averages and records for this station are not official NWS values.
T = Trace of Precipitation, MM = Missing Value Source: NWS Daily Summary

Daily Weather History Graph

Daily Weather History Graph

Search for Another Location

Airport:

Trip Planner

Search our weather history database for the weather conditions in past years. The results will help you decide how hot, cold, wet, or windy it might be!

Date:

Astronomy

Jan. 10, 2013 Rise Set
Actual Time 7:26 AM CST 5:09 PM CST
Civil Twilight 6:57 AM CST 5:38 PM CST
Nautical Twilight 6:24 AM CST 6:11 PM CST
Astronomical Twilight 5:52 AM CST 6:43 PM CST
Moon 6:06 AM CST (1/10) 4:17 PM CST (1/10)
Length of Visible Light 10h 41m
Length of Day
9h 43m
Waning Crescent, 2% of the Moon is Illuminated
Jan 10
Waning Crescent
Jan 11
New
Jan 18
First Quarter
Jan 26
Full
Feb 3
Last Quarter

Hourly Weather History & Observations

Time (CST) Temp. Windchill Dew Point Humidity Pressure Visibility Wind Dir Wind Speed Gust Speed Precip Events Conditions
12:15 AM 44.6 °F 41.4 °F 28.4 °F 53% 30.38 in 10.0 mi East 5.8 mph - N/A   Clear
12:35 AM 44.6 °F 40.7 °F 28.4 °F 53% 30.37 in 10.0 mi East 6.9 mph - N/A   Clear
12:55 AM 44.6 °F 40.7 °F 28.4 °F 53% 30.37 in 10.0 mi East 6.9 mph - N/A   Clear
1:15 AM 44.6 °F 40.2 °F 28.4 °F 53% 30.36 in 10.0 mi East 8.1 mph - N/A   Scattered Clouds
1:35 AM 46.4 °F 42.4 °F 28.4 °F 50% 30.36 in 10.0 mi East 8.1 mph - N/A   Overcast
1:55 AM 46.4 °F 41.1 °F 30.2 °F 53% 30.35 in 10.0 mi East 11.5 mph - N/A   Overcast
2:15 AM 46.4 °F 41.5 °F 30.2 °F 53% 30.34 in 10.0 mi East 10.4 mph - N/A   Overcast
2:35 AM 46.4 °F 42.4 °F 30.2 °F 53% 30.34 in 10.0 mi East 8.1 mph - N/A   Overcast
2:55 AM 46.4 °F 41.9 °F 30.2 °F 53% 30.34 in 10.0 mi East 9.2 mph 17.3 mph N/A   Overcast
3:15 AM 44.6 °F 39.7 °F 30.2 °F 57% 30.33 in 10.0 mi East 9.2 mph - N/A   Overcast
3:35 AM 44.6 °F 39.2 °F 30.2 °F 57% 30.31 in 10.0 mi East 10.4 mph - N/A   Mostly Cloudy
3:55 AM 42.8 °F 36.6 °F 32.0 °F 66% 30.29 in 10.0 mi East 11.5 mph - N/A   Overcast
4:15 AM 42.8 °F 37.5 °F 32.0 °F 66% 30.27 in 10.0 mi East 9.2 mph - 0.01 in   Overcast
4:35 AM 41.0 °F 34.3 °F 33.8 °F 76% 30.27 in 9.0 mi East 11.5 mph 16.1 mph 0.02 in   Overcast
4:55 AM 41.0 °F 36.4 °F 35.6 °F 81% 30.26 in 8.0 mi East 6.9 mph - 0.05 in   Overcast
5:15 AM 39.2 °F 32.0 °F 35.6 °F 87% 30.25 in 6.0 mi East 11.5 mph - 0.05 in   Overcast
5:35 AM 39.2 °F 33.6 °F 35.6 °F 87% 30.24 in 5.0 mi East 8.1 mph - 0.08 in   Overcast
5:55 AM 39.2 °F 33.0 °F 35.6 °F 87% 30.24 in 3.0 mi East 9.2 mph - 0.11 in   Overcast
6:35 AM 39.2 °F 34.2 °F 35.6 °F 87% 30.24 in 10.0 mi East 6.9 mph - 0.02 in   Overcast
6:55 AM 39.2 °F 33.6 °F 35.6 °F 87% 30.21 in 10.0 mi East 8.1 mph - 0.02 in   Overcast
7:15 AM 39.2 °F 34.2 °F 35.6 °F 87% 30.22 in 9.0 mi East 6.9 mph - N/A   Overcast
7:55 AM 39.2 °F 33.0 °F 35.6 °F 87% 30.21 in 10.0 mi East 9.2 mph - N/A   Overcast
8:35 AM 39.2 °F 34.2 °F 37.4 °F 93% 30.19 in 10.0 mi ESE 6.9 mph - N/A   Overcast
8:55 AM 41.0 °F 36.4 °F 37.4 °F 87% 30.18 in 10.0 mi East 6.9 mph - N/A   Overcast
9:15 AM 41.0 °F 35.8 °F 37.4 °F 87% 30.17 in 9.0 mi ESE 8.1 mph - N/A   Overcast
9:35 AM 41.0 °F 35.8 °F 37.4 °F 87% 30.15 in 8.0 mi East 8.1 mph - N/A   Overcast
9:55 AM 42.8 °F 38.0 °F 37.4 °F 81% 30.15 in 7.0 mi ESE 8.1 mph - N/A   Overcast
10:15 AM 42.8 °F 37.0 °F 39.2 °F 87% 30.12 in 7.0 mi East 10.4 mph - N/A   Overcast
10:35 AM 42.8 °F 38.6 °F 39.2 °F 87% 30.12 in 7.0 mi ESE 6.9 mph - N/A   Overcast
10:55 AM 44.6 °F 40.2 °F 39.2 °F 81% 30.08 in 7.0 mi East 8.1 mph - N/A   Overcast
11:15 AM 44.6 °F 40.7 °F 41.0 °F 87% 30.09 in 8.0 mi SE 6.9 mph - N/A   Overcast
11:35 AM 44.6 °F 41.4 °F 42.8 °F 93% 30.07 in 7.0 mi ESE 5.8 mph - N/A   Overcast
11:55 AM 44.6 °F 40.7 °F 42.8 °F 93% 30.05 in 4.0 mi ESE 6.9 mph - N/A   Overcast
12:15 PM 46.4 °F 42.9 °F 42.8 °F 87% 30.01 in 3.0 mi ESE 6.9 mph - 0.01 in   Overcast
12:35 PM 46.4 °F 42.4 °F 44.6 °F 93% 29.99 in 8.0 mi ESE 8.1 mph - 0.01 in   Overcast
12:55 PM 48.2 °F - 46.4 °F 93% 29.99 in 10.0 mi SE 9.2 mph - 0.01 in   Overcast
1:15 PM 50.0 °F - 46.4 °F 87% 29.97 in 10.0 mi ESE 8.1 mph - N/A   Overcast
1:35 PM 51.8 °F - 48.2 °F 88% 29.96 in 10.0 mi ESE 8.1 mph - N/A   Overcast
1:55 PM 51.8 °F - 48.2 °F 88% 29.95 in 10.0 mi SE 6.9 mph - N/A   Overcast
2:15 PM 51.8 °F - 48.2 °F 88% 29.94 in 10.0 mi SE 6.9 mph - N/A   Overcast
2:35 PM 53.6 °F - 50.0 °F 88% 29.93 in 10.0 mi SE 5.8 mph - N/A   Overcast
2:55 PM 53.6 °F - 48.2 °F 82% 29.93 in 10.0 mi SE 8.1 mph - N/A   Overcast
3:15 PM 53.6 °F - 48.2 °F 82% 29.92 in 10.0 mi ESE 8.1 mph - N/A   Overcast
3:35 PM 53.6 °F - 48.2 °F 82% 29.93 in 10.0 mi SE 9.2 mph - N/A   Overcast
3:55 PM 53.6 °F - 48.2 °F 82% 29.93 in 10.0 mi SSE 8.1 mph - N/A   Overcast
4:15 PM 53.6 °F - 48.2 °F 82% 29.93 in 5.0 mi SE 9.2 mph - N/A   Overcast
4:35 PM 51.8 °F - 48.2 °F 88% 29.93 in 10.0 mi SE 8.1 mph - N/A   Overcast
4:55 PM 51.8 °F - 48.2 °F 88% 29.92 in 10.0 mi ESE 6.9 mph - N/A   Mostly Cloudy
5:15 PM 51.8 °F - 48.2 °F 88% 29.91 in 10.0 mi ESE 4.6 mph - N/A   Overcast
5:35 PM 51.8 °F - 48.2 °F 88% 29.90 in 10.0 mi ESE 5.8 mph - N/A   Overcast
5:55 PM 51.8 °F - 48.2 °F 88% 29.89 in 10.0 mi East 5.8 mph - N/A   Overcast
6:15 PM 51.8 °F - 48.2 °F 88% 29.88 in 8.0 mi ESE 8.1 mph - N/A   Overcast
6:35 PM 51.8 °F - 48.2 °F 88% 29.87 in 10.0 mi ESE 4.6 mph - N/A   Overcast
6:55 PM 51.8 °F - 48.2 °F 88% 29.86 in 10.0 mi East 5.8 mph - N/A   Overcast
7:15 PM 51.8 °F - 48.2 °F 88% 29.85 in 10.0 mi East 6.9 mph - N/A   Overcast
7:35 PM 51.8 °F - 48.2 °F 88% 29.84 in 10.0 mi East 4.6 mph - N/A   Overcast
7:55 PM 51.8 °F - 48.2 °F 88% 29.84 in 10.0 mi East 3.5 mph - N/A   Overcast
8:15 PM 51.8 °F - 48.2 °F 88% 29.88 in 5.0 mi West 8.1 mph 17.3 mph 0.03 in   Overcast
8:55 PM 50.0 °F - 46.4 °F 87% 29.86 in 9.0 mi SSE 3.5 mph - 0.03 in   Mostly Cloudy
9:15 PM 50.0 °F - 46.4 °F 87% 29.83 in 5.0 mi ENE 5.8 mph - N/A   Overcast
9:35 PM 48.2 °F - 46.4 °F 93% 29.82 in 0.8 mi Calm Calm - N/A   Overcast
9:55 PM 48.2 °F - 46.4 °F 93% 29.82 in 0.8 mi SSE 3.5 mph - N/A   Overcast
10:15 PM 48.2 °F - 46.4 °F 93% 29.83 in 0.5 mi South 5.8 mph - N/A   Overcast
10:35 PM 48.2 °F - 46.4 °F 93% 29.82 in 2.0 mi SSE 5.8 mph - N/A   Mostly Cloudy
10:55 PM 50.0 °F - 46.4 °F 87% 29.83 in 10.0 mi South 8.1 mph - N/A   Mostly Cloudy
11:15 PM 48.2 °F - 46.4 °F 93% 29.82 in 10.0 mi South 9.2 mph - N/A   Mostly Cloudy
11:55 PM 48.2 °F - 46.4 °F 93% 29.82 in 10.0 mi South 5.8 mph - N/A   Clear